Lid_Strength_Index
5 4 5 5 4 5 4 3 2 1 1 2 0 1 1 1 1 2 2 3 4 4 4 5 5 7 8 8 8 8 10 10 13 13 12 10 9 9 9 8 8 8 9
4 4 4 5 5 6 6 6 5 4 3 3 3 3 1 1 1 1 2 3 3 4 4 5 6 7 8 8 7 8 10 10 12 15 13 13 11 10 9 10 10 9 10
3 4 4 5 4 4 4 4 5 5 3 3 2 2 2 1 1 2 1 2 3 3 3 4 6 7 7 8 8 9 9 10 11 14 14 12 12 11 12 12 11 11 11
2 2 4 4 4 5 6 6 5 5 5 4 5 5 5 4 3 1 1 2 2 3 4 4 5 6 7 8 8 9 10 12 12 13 14 14 14 13 13 14 15 13 13
2 4 5 6 5 6 6 6 6 5 5 5 5 4 4 3 3 3 2 2 2 3 4 4 5 6 6 7 8 9 10 12 13 14 14 14 15 15 15 14 15 15 14
4 6 6 7 7 7 6 7 6 6 6 5 5 5 5 4 5 5 5 2 2 3 3 4 4 6 7 8 9 9 10 12 13 13 13 14 14 14 14 15 15 16 17
6 7 7 7 7 6 7 7 8 8 7 7 7 6 6 5 6 6 6 4 2 3 3 3 3 5 7 7 9 9 10 10 11 11 13 13 14 13 13 14 15 15 15
7 7 7 7 7 7 7 8 8 8 8 8 7 7 7 7 7 7 7 4 4 2 3 2 3 4 5 6 8 10 10 10 10 10 11 11 11 11 12 13 14 14 14
7 7 7 7 8 7 8 8 8 8 9 9 8 8 8 8 8 8 7 5 5 4 2 2 3 4 5 5 8 9 10 10 10 9 10 10 11 11 11 12 14 16 17
7 7 7 7 8 7 7 7 8 8 9 8 8 8 8 9 9 8 8 7 7 6 5 4 6 3 7 7 7 8 12 13 12 12 12 12 12 12 12 12 13 15 16
6 6 6 6 6 7 7 7 7 8 8 8 9 8 9 10 10 8 8 8 7 8 7 7 7 7 7 7 7 8 11 12 13 13 13 13 13 13 13 12 12 13 15
7 7 7 6 6 6 7 7 7 8 9 9 9 9 8 10 10 9 9 9 8 9 9 9 9 8 8 8 8 9 11 12 12 13 13 14 14 14 13 12 12 12 12
7 8 8 7 7 6 7 7 8 7 8 8 8 9 9 10 10 10 9 9 9 10 9 9 8 8 8 9 10 11 12 12 13 13 14 14 13 12 12 14 14 14 13
7 7 7 7 7 6 6 6 8 8 8 8 8 9 10 10 10 10 10 10 10 10 10 9 9 10 10 11 12 11 11 12 12 13 13 13 14 14 14 14 15 15 16
8 8 7 7 7 7 7 6 7 8 7 8 8 9 10 10 10 11 10 10 11 11 11 10 11 11 12 12 12 12 12 12 12 14 15 15 15 14 13 14 14 14 15
8 8 7 7 7 7 7 7 6 8 9 8 9 10 10 10 11 11 11 11 11 11 11 12 12 12 13 13 13 13 13 15 15 14 14 14 14 14 14 14 14 14 15
8 8 8 8 8 8 8 8 8 7 9 9 9 10 10 10 11 11 11 11 11 11 13 13 13 13 13 14 15 15 15 15 14 14 14 14 14 15 14 15 14 14 14
7 8 8 8 8 8 8 8 8 8 9 9 9 10 10 10 10 11 12 12 12 12 13 13 13 13 14 14 15 15 15 14 14 14 14 14 14 14 15 14 14 14 14
8 8 8 8 8 8 8 8 8 8 8 9 9 10 10 10 11 11 12 12 13 13 13 13 13 13 13 14 14 14 14 13 13 13 14 14 14 14 13 13 13 14 14
8 8 8 8 8 8 8 9 9 8 8 8 9 9 10 10 11 12 12 12 12 13 13 13 13 13 13 14 14 14 13 14 14 14 14 13 13 12 13 13 13 14 13
8 8 8 8 8 8 8 9 8 8 8 8 9 9 10 10 11 12 12 12 12 12 13 13 13 13 13 14 14 14 14 14 14 14 14 13 12 13 12 12 13 12 13
8 9 7 7 8 8 8 8 8 8 8 9 9 9 10 10 11 12 12 12 12 12 12 12 12 13 13 13 14 14 14 14 14 14 13 13 12 12 12 12 12 12 13
9 9 9 7 8 8 8 8 8 7 8 8 8 9 10 10 11 11 12 12 13 13 13 12 13 14 13 13 13 13 13 13 13 12 13 13 13 13 12 12 13 13 13
9 9 9 9 8 8 8 8 7 7 8 8 9 9 9 10 10 10 11 12 13 13 13 13 13 13 13 13 12 12 12 12 12 12 13 13 13 13 12 13 13 13 13
9 9 9 10 10 9 8 8 8 7 8 9 9 9 8 9 10 10 10 12 12 13 13 13 13 13 14 13 13 13 13 13 13 13 12 13 13 13 13 13 13 13 13
9 9 9 8 9 9 9 9 8 7 7 8 9 9 9 9 9 10 10 11 12 13 13 13 13 13 13 13 13 13 14 14 13 13 12 12 13 13 14 13 14 13 14